Wind_Speed
27 28 31 33 34 37 39 40 41 42 44 43 41 41 42 45 47 48 48 48 49 50 51 51 51 51 52 51 50 49 48 47 45 44 44 43 42 41 41 40 39 39 39 38
28 29 32 32 33 35 37 39 40 42 44 42 43 42 41 43 46 48 47 47 48 50 51 51 51 51 51 51 50 49 48 48 47 46 45 44 43 42 42 41 41 40 39 39
28 28 33 33 32 34 35 37 39 42 43 41 42 44 43 42 44 46 46 46 47 49 51 50 51 51 52 52 51 49 48 48 47 46 45 44 44 43 42 41 41 40 40 40
28 29 32 30 31 33 35 37 38 40 41 43 44 44 45 44 43 45 44 45 47 48 48 51 51 50 51 52 51 50 49 48 47 46 46 45 45 43 43 42 41 41 41 41
29 30 30 29 30 32 34 36 38 37 39 42 44 45 45 46 46 45 44 45 46 47 47 48 49 49 50 50 51 51 49 48 48 47 47 46 45 44 44 43 43 42 42 41
29 29 29 29 29 30 33 34 36 37 38 40 42 45 46 46 48 47 45 44 45 47 48 48 48 48 48 49 50 50 49 48 48 48 47 46 45 45 45 44 43 42 41 40
29 29 28 27 28 31 34 34 35 36 38 40 41 42 45 46 48 48 47 45 44 45 46 47 47 47 47 47 47 48 48 48 48 48 47 46 45 45 45 44 43 42 41 39
29 31 28 27 29 31 32 34 36 37 38 40 42 41 43 46 48 48 47 46 45 45 46 47 47 47 46 46 46 46 46 47 47 47 47 46 46 45 44 43 42 41 39 38
28 28 29 29 30 31 31 33 35 37 38 39 41 42 44 46 48 48 47 46 46 46 46 48 48 47 46 46 46 46 46 46 45 46 45 45 45 43 43 42 41 40 39 39
27 27 29 30 31 32 33 33 35 36 37 38 40 43 43 45 47 47 47 47 47 47 47 47 47 47 48 48 47 46 45 44 44 44 44 44 44 43 42 42 41 40 39 39
25 26 28 29 31 32 34 35 36 37 37 37 39 42 44 44 46 47 47 47 47 48 49 47 48 49 48 48 47 47 46 45 44 44 43 44 43 42 42 41 40 40 39 39
26 26 28 28 31 32 33 34 35 36 37 38 38 40 43 46 46 47 47 47 48 49 50 50 50 49 49 49 48 47 46 45 45 44 43 43 42 42 41 40 39 39 38 38
26 27 29 29 31 32 33 35 37 37 38 38 38 38 40 43 46 47 47 46 48 48 49 50 50 49 49 48 47 46 45 45 44 44 43 42 42 41 40 39 38 37 37 37
24 26 27 28 30 32 32 34 36 38 37 38 38 39 40 41 43 45 45 46 47 47 47 47 47 48 48 47 46 45 44 44 43 43 42 41 41 41 40 39 38 37 36 36
23 24 25 26 28 30 32 33 35 37 37 37 37 38 40 41 41 43 44 44 44 45 45 45 45 45 46 46 46 46 44 43 42 41 41 41 41 41 40 39 38 37 36 36
24 25 25 26 27 28 31 33 35 36 37 38 37 37 39 40 40 41 41 41 42 43 43 44 44 44 45 46 46 45 44 42 41 40 40 40 39 38 38 37 37 36 36 36
25 25 25 26 28 29 30 32 35 37 37 38 38 37 38 38 39 40 40 40 40 40 41 41 41 41 42 43 44 44 44 42 42 41 40 39 38 37 37 37 36 35 35 35
24 24 25 25 26 28 30 31 33 35 36 37 38 38 38 37 38 39 39 40 39 40 39 39 39 39 39 39 40 41 42 42 41 40 39 38 38 37 37 37 37 36 36 35
24 24 24 23 24 25 27 29 30 32 34 36 37 37 36 37 37 38 39 39 40 40 39 39 39 38 38 37 37 38 39 40 40 39 39 39 38 37 37 37 37 36 36 35
23 25 24 24 24 24 24 26 28 29 32 35 36 37 36 37 38 37 37 37 38 38 38 38 38 38 38 37 36 36 36 38 39 39 40 40 39 38 37 36 36 35 35 34
22 23 24 25 24 24 24 25 27 29 30 32 35 36 37 37 37 36 36 37 37 37 37 37 36 36 36 36 36 35 36 37 37 37 38 38 38 37 36 35 34 34 33 33
21 21 22 24 24 24 24 26 27 28 30 30 32 34 35 36 36 35 35 37 37 36 35 34 34 34 34 35 35 34 35 35 35 35 35 36 36 35 35 34 33 32 32 31
20 20 19 21 21 23 24 25 26 27 28 29 29 32 34 35 36 35 35 35 36 35 34 34 33 32 32 33 33 33 33 33 33 33 33 34 34 34 34 33 33 32 32 31
17 17 17 18 19 20 22 23 24 25 27 28 29 31 33 34 34 34 34 34 35 35 35 34 33 32 31 30 30 30 30 30 31 32 32 32 32 32 32 31 31 31 31 30
15 14 14 14 15 17 19 21 22 24 26 26 28 29 31 32 32 32 33 33 34 35 35 34 32 31 30 29 28 28 28 28 29 30 30 30 30 30 30 29 28 28 29 29
14 13 12 12 13 15 17 19 21 22 23 24 25 27 29 30 31 32 32 32 32 32 32 31 31 29 28 27 27 27 26 26 27 28 28 28 28 29 29 28 27 27 27 27
11 10 10 10 12 14 16 18 20 21 22 22 23 25 26 27 29 30 30 29 30 30 30 30 29 28 28 27 26 26 26 26 26 26 26 27 27 27 26 26 26 26 26 25
Wind_Direction
241 238 236 233 229 229 231 232 233 226 226 222 222 219 219 220 220 220 221 221 222 222 223 224 226 227 228 230 231 232 233 234 236 237 238 241 243 246 249 252 255 258 261 265
241 239 240 237 231 230 233 233 233 229 225 222 222 219 215 217 218 219 220 220 220 221 222 224 225 226 227 229 231 232 233 234 235 237 239 241 243 246 248 251 254 257 261 264
243 239 239 238 236 233 232 232 233 231 227 223 219 217 215 214 215 215 216 217 219 221 222 223 225 225 226 227 229 230 232 233 234 236 238 241 243 246 248 251 254 257 260 263
246 242 240 236 236 236 234 233 231 230 229 225 218 215 216 215 214 213 214 215 217 220 221 222 223 225 225 226 227 228 230 231 233 235 237 240 243 246 248 251 253 256 259 262
245 244 240 235 236 236 237 235 229 229 229 226 222 219 217 216 215 215 215 214 216 219 221 222 223 225 226 226 227 228 229 231 233 234 237 239 242 245 247 250 253 256 260 263
243 243 240 233 233 235 236 234 228 229 227 225 223 222 218 216 216 217 216 214 216 217 219 221 223 224 225 226 227 227 228 230 232 234 236 238 241 243 246 249 253 256 260 263
243 243 240 233 232 232 233 231 229 229 230 228 226 224 219 218 217 217 218 217 218 217 218 219 221 222 224 226 226 227 228 230 231 233 235 237 240 242 246 249 252 255 258 261
245 243 240 234 232 231 231 230 230 231 232 230 228 225 221 220 219 218 219 219 219 219 219 221 222 222 223 225 226 227 229 230 232 234 235 238 240 242 245 248 251 254 257 260
244 244 240 237 234 230 229 229 229 231 231 230 227 225 223 221 219 219 219 219 220 221 221 222 224 224 224 225 226 228 229 230 232 234 236 238 240 243 245 248 250 254 257 260
243 243 242 240 237 234 232 231 229 229 228 228 226 225 224 223 221 221 219 220 222 222 223 223 224 225 225 225 226 227 229 230 233 236 237 239 241 244 246 248 250 252 255 259
243 242 242 241 240 237 235 234 232 230 229 229 226 224 223 223 222 222 221 222 223 224 224 224 225 226 226 226 227 228 229 232 234 237 239 240 241 243 246 248 249 252 256 259
246 246 245 242 240 239 237 235 232 231 231 231 228 224 223 223 222 222 221 222 223 225 226 226 227 227 226 226 228 229 231 232 234 236 238 240 241 243 245 248 251 253 256 259
248 247 247 245 242 240 237 236 234 232 231 230 228 225 222 222 221 222 223 223 224 225 227 228 228 227 226 227 228 229 231 232 233 235 236 238 240 242 245 249 251 254 257 259
252 252 251 248 245 242 239 237 235 234 232 231 229 226 223 221 221 222 222 222 223 224 225 225 226 226 226 227 228 228 230 231 232 234 235 238 240 242 245 248 251 254 257 260
254 252 252 250 247 242 240 238 234 234 233 231 229 226 223 221 220 220 220 221 222 225 225 224 225 225 227 227 228 229 230 231 232 233 235 238 240 242 245 248 251 254 257 260
259 256 254 252 250 245 241 238 234 233 233 232 228 225 222 220 218 217 218 219 220 222 223 223 223 225 227 228 229 230 230 231 232 233 236 237 239 241 245 248 250 254 257 259
263 260 257 255 252 247 242 238 235 233 231 230 226 223 221 219 218 217 217 218 218 219 221 221 221 222 225 228 230 231 231 232 233 234 235 237 240 243 246 247 250 253 256 259
268 267 265 261 254 249 244 240 236 232 229 228 226 223 221 220 220 219 219 218 219 219 220 220 220 222 225 227 228 230 232 233 234 235 236 238 241 244 247 249 251 253 256 257
269 269 268 262 256 251 246 240 235 231 228 227 225 224 222 220 220 220 220 220 220 219 220 221 221 223 225 227 228 230 231 232 232 234 235 238 240 243 245 248 250 252 254 257
270 269 266 258 253 251 246 239 233 230 228 226 225 224 223 221 220 220 220 220 220 220 220 222 222 223 225 227 229 230 231 232 234 235 236 238 241 243 245 248 249 250 252 256
274 269 262 256 253 250 246 238 232 229 227 227 225 224 222 221 218 218 220 220 219 219 220 222 223 224 226 228 229 231 232 233 234 236 238 240 242 243 245 246 248 250 253 256
277 274 266 257 251 248 244 238 232 228 225 223 222 221 220 218 217 218 219 218 218 219 219 221 222 223 225 227 229 230 232 233 233 235 237 239 240 241 244 246 248 250 253 256
279 275 268 259 251 245 241 237 232 226 222 221 219 218 217 217 218 217 216 216 217 218 220 221 222 223 225 227 228 230 231 231 232 234 236 237 238 240 243 245 247 250 253 256
282 276 266 257 251 244 240 234 228 222 218 215 214 214 214 214 214 214 214 215 216 216 218 220 221 222 225 227 228 228 230 231 231 232 233 234 236 238 241 244 247 250 252 256
283 275 265 258 249 241 234 228 223 218 213 211 211 211 211 210 210 211 212 213 214 215 217 218 220 222 225 227 227 227 228 230 230 230 230 233 234 236 240 243 246 248 252 255
281 273 263 252 242 233 226 220 214 208 206 206 207 209 209 209 210 210 211 212 212 212 214 216 218 220 223 225 224 223 224 226 226 227 228 230 233 236 239 242 245 248 251 254
279 271 260 245 233 224 217 211 207 204 201 200 203 204 205 205 206 207 209 210 210 211 212 214 217 218 218 219 219 220 222 223 225 228 230 231 233 236 239 243 246 248 250 254
Height
5496 5498 5500 5503 5507 5511 5514 5519 5523 5529 5535 5544 5550 5556 5562 5569 5576 5584 5592 5600 5608 5616 5623 5630 5638 5646 5653 5661 5667 5674 5680 5686 5691 5696 5700 5704 5707 5711 5713 5716 5717 5719 5720 5720
5489 5491 5492 5495 5499 5503 5507 5511 5514 5519 5526 5534 5540 5546 5552 5559 5566 5574 5582 5590 5597 5605 5612 5620 5627 5635 5642 5650 5657 5663 5669 5675 5680 5685 5690 5694 5697 5701 5704 5706 5708 5709 5711 5711
5481 5484 5484 5487 5492 5495 5498 5502 5506 5510 5518 5524 5530 5536 5543 5550 5557 5565 5572 5580 5587 5594 5602 5609 5617 5625 5632 5639 5645 5652 5658 5664 5670 5675 5679 5683 5687 5690 5693 5696 5698 5700 5701 5702
5474 5476 5477 5483 5484 5487 5490 5493 5497 5501 5507 5514 5520 5527 5534 5541 5548 5556 5563 5570 5578 5585 5592 5599 5606 5614 5621 5627 5634 5641 5647 5653 5659 5664 5669 5673 5677 5680 5683 5686 5688 5690 5691 5692
5466 5467 5469 5475 5477 5479 5481 5485 5488 5492 5498 5504 5511 5517 5525 5531 5538 5546 5553 5561 5568 5575 5582 5589 5596 5603 5610 5617 5624 5630 5636 5642 5648 5653 5658 5662 5666 5670 5673 5675 5677 5679 5681 5682
5459 5459 5462 5469 5470 5471 5473 5477 5481 5484 5490 5496 5502 5508 5517 5522 5529 5537 5544 5551 5558 5565 5572 5579 5586 5593 5600 5606 5613 5619 5626 5632 5637 5642 5647 5652 5656 5659 5662 5664 5667 5669 5670 5672
5451 5451 5455 5460 5462 5463 5467 5471 5474 5477 5482 5487 5492 5499 5507 5513 5520 5528 5535 5542 5549 5555 5562 5569 5576 5583 5589 5596 5603 5609 5614 5620 5626 5631 5636 5641 5645 5648 5651 5654 5656 5658 5660 5661
5444 5445 5451 5452 5453 5456 5458 5462 5465 5469 5473 5478 5484 5490 5497 5503 5511 5518 5525 5532 5539 5546 5553 5559 5566 5573 5579 5586 5593 5598 5604 5609 5615 5620 5625 5630 5634 5637 5640 5643 5646 5648 5649 5651
5437 5441 5443 5443 5445 5447 5450 5453 5457 5461 5465 5470 5475 5482 5488 5494 5501 5508 5515 5523 5530 5537 5543 5550 5556 5563 5569 5576 5582 5587 5593 5599 5604 5610 5614 5619 5623 5627 5630 5633 5635 5637 5639 5640
5429 5432 5434 5435 5437 5439 5442 5445 5448 5452 5456 5461 5467 5472 5478 5485 5491 5498 5505 5513 5520 5527 5534 5540 5546 5553 5559 5565 5571 5577 5583 5589 5594 5599 5604 5608 5612 5616 5619 5622 5625 5627 5629 5630
5421 5424 5425 5427 5429 5431 5433 5436 5440 5443 5448 5452 5457 5463 5469 5475 5482 5488 5495 5503 5509 5516 5523 5530 5536 5543 5549 5555 5561 5567 5573 5579 5584 5589 5594 5598 5602 5605 5609 5612 5614 5617 5619 5620
5414 5416 5415 5418 5420 5422 5425 5428 5431 5435 5439 5443 5448 5453 5459 5465 5472 5478 5485 5492 5499 5505 5512 5519 5525 5532 5538 5544 5550 5557 5563 5569 5574 5579 5583 5587 5591 5595 5598 5601 5604 5606 5608 5609
5405 5406 5407 5409 5411 5413 5416 5419 5422 5425 5430 5434 5439 5443 5449 5455 5462 5468 5475 5481 5488 5495 5501 5508 5515 5522 5528 5534 5540 5547 5553 5559 5564 5569 5573 5577 5581 5585 5588 5591 5593 5596 5597 5599
5397 5397 5398 5401 5402 5404 5406 5409 5412 5416 5420 5424 5429 5434 5439 5445 5452 5458 5465 5471 5477 5484 5490 5497 5504 5511 5517 5524 5530 5537 5543 5548 5553 5558 5563 5567 5571 5574 5578 5581 5583 5585 5587 5589
5390 5389 5390 5391 5393 5394 5397 5399 5403 5407 5411 5415 5419 5424 5430 5436 5442 5449 5455 5461 5467 5474 5481 5487 5494 5501 5507 5513 5520 5526 5532 5538 5543 5548 5552 5556 5560 5564 5567 5570 5573 5575 5577 5579
5381 5381 5382 5383 5384 5385 5387 5390 5393 5397 5401 5405 5410 5415 5421 5427 5433 5439 5445 5451 5458 5465 5471 5477 5484 5490 5496 5503 5509 5516 5522 5528 5533 5538 5542 5547 5550 5554 5557 5560 5562 5565 5567 5569
5374 5374 5374 5374 5375 5376 5378 5380 5384 5387 5391 5396 5401 5407 5413 5419 5425 5431 5437 5443 5449 5456 5462 5468 5474 5480 5486 5493 5499 5505 5511 5517 5523 5528 5532 5537 5540 5543 5547 5550 5552 5555 5557 5559
5365 5366 5366 5366 5366 5367 5369 5371 5374 5378 5383 5387 5392 5398 5404 5410 5416 5422 5428 5435 5441 5448 5454 5460 5466 5472 5478 5484 5489 5495 5501 5507 5512 5517 5522 5526 5530 5533 5536 5539 5542 5545 5547 5548
5357 5357 5357 5356 5357 5358 5359 5361 5364 5368 5373 5378 5383 5389 5395 5402 5408 5414 5420 5426 5433 5440 5446 5452 5458 5464 5469 5475 5480 5485 5491 5496 5502 5507 5511 5515 5519 5523 5526 5529 5532 5535 5537 5538
5350 5349 5348 5348 5349 5349 5350 5352 5355 5359 5364 5369 5374 5380 5387 5393 5399 5405 5411 5418 5425 5431 5437 5443 5449 5455 5461 5466 5471 5476 5481 5486 5491 5496 5501 5505 5509 5512 5516 5519 5522 5524 5527 5529
5341 5340 5340 5340 5340 5341 5342 5344 5347 5351 5356 5360 5366 5372 5378 5384 5390 5397 5403 5410 5417 5423 5429 5435 5441 5446 5452 5457 5462 5467 5472 5476 5481 5485 5490 5494 5498 5502 5506 5509 5512 5515 5517 5519
5333 5332 5331 5331 5332 5332 5334 5336 5339 5343 5348 5352 5358 5364 5370 5376 5383 5389 5396 5403 5409 5415 5421 5427 5432 5438 5443 5448 5453 5458 5462 5466 5471 5475 5479 5484 5488 5492 5496 5500 5503 5506 5508 5511
5325 5324 5323 5323 5323 5324 5326 5329 5332 5336 5340 5345 5350 5356 5362 5369 5375 5382 5388 5395 5401 5407 5413 5419 5424 5430 5434 5439 5444 5449 5453 5457 5462 5466 5470 5474 5479 5483 5487 5490 5494 5497 5499 5501
5318 5317 5316 5316 5316 5318 5320 5322 5325 5329 5333 5338 5344 5349 5355 5361 5368 5374 5381 5387 5393 5399 5405 5411 5417 5422 5427 5432 5436 5441 5445 5449 5453 5457 5462 5466 5471 5475 5478 5482 5485 5488 5490 5492
5312 5311 5310 5310 5311 5312 5314 5316 5319 5323 5328 5333 5338 5343 5349 5355 5361 5367 5373 5380 5386 5392 5399 5405 5410 5416 5421 5425 5429 5433 5437 5441 5445 5449 5454 5458 5463 5467 5470 5474 5476 5479 5481 5483
5307 5306 5305 5306 5306 5307 5309 5312 5315 5319 5323 5328 5333 5338 5343 5349 5355 5361 5368 5374 5380 5386 5392 5398 5404 5409 5414 5419 5423 5427 5431 5435 5439 5443 5447 5451 5455 5459 5463 5466 5468 5471 5473 5475
5302 5301 5301 5301 5302 5303 5305 5308 5311 5315 5319 5324 5329 5334 5339 5345 5351 5357 5363 5369 5375 5381 5387 5392 5398 5403 5408 5412 5417 5421 5425 5429 5434 5437 5441 5445 5448 5452 5455 5458 5460 5463 5465 5467